DELTA 1 DEB, 3127

Orbit data source: Space-Track

DELTA 1 DEB, 3127 is space debris in LEO originally from a launch on Thu, 11 Jan 1968 UTC launched from the Air Force Western Test Range (AFWTR). Debris objects in space refer to the collection of defunct objects orbiting the Earth. Examples of debris include non-operational satellites, rocket bodies, and fragments generated from explosions, collisions, or faulty payload assembly.

Loading next visibility...
Identifier
3127, 1968-002D
Orbit
LEO
Country
Flag of USUS
Related business
Manufacturer
Unknown
Mission
Spacecraft
Bus & Motor
Unknown
Mass
Unknown
Launch date (UTC)
1968-01-11 (58 years ago)
Launch vehicle
Unknown
Launch site
Air Force Western Test Range (AFWTR)
Object type
Payload
Rocket body
Debris
Shape & HBR
Unknown
Radar Cross Section
Small (<0.1 m²)

Expand to show TLE details & history
Last TLE update: 2 days ago

TLE from 2 days ago
0 DELTA 1 DEB
1 03127U 68002D   25241.03851679 -.00000077  00000-0 -16987-4 0  9993
2 03127 105.3331 278.2680 0320763  76.3298 341.6810 12.84873873701440
Epoch: 2025-08-29T00:55Z
TLE epoch observation values (Epoch: 2025-08-29T00:55:27.85Z)
Latitude
53.91453°
Longitude
-95.07003°
Altitude
1,096.741 km
Speed
7.419 km/s
True Right ascension
17h 05m 09s
True Declination
53° 45' 29"
Sunlit
Object was in daylight at epoch
Visualization orbit readout
Latitude
Unknown
Longitude
Unknown
Altitude
Unknown
Speed
Unknown
Apparent Right ascension
Unknown
Apparent Declination
Unknown
Sunlit
N/A
Visualization observer readout
Local Sidereal Time
17:57:41
Azimuth
Unknown
Elevation
Unknown
Doppler factor
Unknown
Orbital elements
Apogee altitude
1,566.595 km
Perigee altitude
1,072.76 km
Semi-major axis
7,697.815 km
Eccentricity
0.03208
Inclination
105.3331°
RAAN
278.268°
Arg. of periapsis
76.3298°
True anomaly
340.48016°
Mean anomaly
341.681°
Eccentric anomaly
341.08524°
Mean motion
3.2136 °/min
Orbital period
112.02 mins
BSTAR
-0.000016987
Loading maneuver chart data...
Computing Atmospheric mass density...
Loading historical data...
Loading historical data...
Loading historical data...
Loading historical data...
Loading historical data...
Loading historical data...
Loading historical data...

Documentation

Showing up to 5 results
|